ATLANTIS (42737 NORAD) Tracking and Keplerian Element Data

This shows tracking and keplerian element data for the satellite.

Feedback or suggestion? Click here.




ElementValue
Catalog42737
NameATLANTIS
Epoch Orbit4790
Epoch Day87.11387049
Epoch Year2018
RAAN27.9033
Inclination51.6172
Eccentricity0.0007517
Argument of Perigee251.1316
Mean Anonmoly108.7445
Mean Motion16.41503283
Decay Rate0.20601958
L11 42737U 98067MS 18087.11387049 .20601958 12400-4 12215-2 0 9995
L22 42737 51.6172 27.9033 0007517 251.1316 108.7445 16.41503283 47902



Live tracking and technical data element details for ATLANTIS (NORAD 42737). ATLANTIS can be tracked NOW for your location showing map with azimuth and elevation plus other details from your city location.







IsCatalogInMostPopularTable: catalog: 42737, numindb: 1183
Update: records affected: 1



GetName: 42737 ATLANTIS

Hit Count: updated at: Tue, 17 Sep 2024 11:39:15 GMT